This demonstration page uses our WeatherBlox Daily Observations layout. Learn more.

Left ArrowRight Arrow

34.74481, -87.66753

Hourly Observations for February 7, 2020

Temp ( °F °C ) Dew Point ( °F °C ) Humidity (%) Winds ( mph kmh ) Pressure ( in mb ) Visibility ( mi km ) Precip ( " mm )
12:45 am 00:45 Cloudy 35 1.7 31 -0.6 85 85 WNW 16 26 29.63 1003 8 13 0.00 0.00
12:53 am 00:53 Cloudy with Light Snow 35 1.7 31 -0.6 85 85 WNW 13 20 29.61 1003 4 6 0.01 0.25
1:09 am 01:09 Cloudy with Light Snow 35 1.7 31 -0.6 85 85 WNW 15 24 29.64 1004 2 3 0.00 0.00
1:14 am 01:14 Cloudy with Light Snow 34 1.1 31 -0.6 89 89 WNW 10 17 29.65 1004 1 2 0.00 0.00
1:28 am 01:28 Cloudy with Light Snow 34 1.1 31 -0.6 89 89 WNW 13 20 29.66 1004 2 3 0.00 0.00
1:34 am 01:34 Cloudy with Light Snow 34 1.1 31 -0.6 89 89 WNW 15 24 29.66 1004 3 5 0.00 0.00
1:36 am 01:36 Cloudy with Light Snow 34 1.1 31 -0.6 89 89 WNW 15 24 29.66 1004 3 4 0.00 0.00
1:50 am 01:50 Cloudy 36 2 30 -1 81 81 W 13 20 29.66 1005 7 11 0.00 0.00
1:53 am 01:53 Cloudy 35 1.7 31 -0.6 85 85 W 13 20 29.65 1004 9 14 0.00 0.00
2:19 am 02:19 Cloudy 35 1.7 31 -0.6 85 85 WNW 10 17 29.69 1005 10 16 0.00 0.00
2:30 am 02:30 Cloudy 35 1.7 31 -0.6 85 85 WNW 12 19 29.69 1005 10 16 0.00 0.00
2:48 am 02:48 Cloudy 36 2 30 -1 81 81 WNW 8 13 29.69 1006 10 16 0.00 0.00
2:53 am 02:53 Cloudy 35 1.7 30 -1.1 82 82 WNW 8 13 29.67 1005 10 16 0.00 0.00
3:12 am 03:12 Cloudy 35 1.7 30 -1.1 82 82 WNW 15 24 29.71 1006 10 16 0.00 0.00
3:53 am 03:53 Cloudy 35 1.7 28 -2.2 76 76 WNW 12 19 29.70 1006 10 16 0.00 0.00
4:16 am 04:16 Cloudy 35 1.7 28 -2.2 76 76 NW 10 17 29.74 1007 10 16 0.00 0.00
4:50 am 04:50 Cloudy 36 2 28 -2 75 75 WNW 10 17 29.75 1008 10 16 0.00 0.00
4:53 am 04:53 Cloudy 35 1.7 29 -1.7 78 78 NW 10 17 29.73 1007 10 16 0.00 0.00
5:53 am 05:53 Cloudy with Light Snow 34 1.1 29 -1.7 82 82 WNW 10 17 29.78 1008 5 8 0.00 0.00
6:02 am 06:02 Cloudy 34 1.1 30 -1.1 85 85 WNW 8 13 29.81 1009 10 16 0.00 0.00
6:09 am 06:09 Cloudy 34 1.1 30 -1.1 85 85 NW 8 13 29.81 1009 10 16 0.00 0.00
6:17 am 06:17 Cloudy 34 1.1 29 -1.7 82 82 WNW 9 15 29.82 1010 9 14 0.00 0.00
6:44 am 06:44 Cloudy 34 1.1 29 -1.7 82 82 WNW 8 13 29.84 1010 10 16 0.00 0.00
6:53 am 06:53 Cloudy 34 1.1 29 -1.7 82 82 WNW 12 19 29.82 1010 10 16 0.00 0.00
7:10 am 07:10 Cloudy 34 1.1 29 -1.7 82 82 WNW 7 11 29.86 1011 10 16 0.00 0.00
7:40 am 07:40 Cloudy 35 1.7 29 -1.7 78 78 WNW 12 19 29.87 1011 10 16 0.00 0.00
7:53 am 07:53 Cloudy 35 1.7 29 -1.7 78 78 NW 12 19 29.85 1011 10 16 0.00 0.00
8:36 am 08:36 Cloudy 35 1.7 30 -1.1 82 82 W 14 22 29.91 1013 10 16 0.00 0.00
8:53 am 08:53 Cloudy 35 1.7 30 -1.1 82 82 WNW 12 19 29.89 1012 10 16 0.00 0.00
9:28 am 09:28 Cloudy 35 1.7 30 -1.1 82 82 WNW 13 20 29.94 1014 9 14 0.00 0.00
9:45 am 09:45 Cloudy with Light Snow 35 1.7 30 -1.1 82 82 W 17 28 29.95 1014 6 10 0.00 0.00
9:53 am 09:53 Cloudy with Light Snow 35 1.7 30 -1.1 82 82 W 14 22 29.93 1014 6 10 0.00 0.00
10:22 am 10:22 Cloudy 36 2.2 27 -2.8 70 70 WNW 17 28 29.96 1015 10 16 0.00 0.00
10:53 am 10:53 Cloudy 37 2.8 27 -2.8 67 67 W 17 28 29.95 1014 10 16 0.00 0.00
11:53 am 11:53 Cloudy 38 3.3 27 -2.8 65 65 W 17 28 29.98 1015 10 16 0.00 0.00
12:53 pm 12:53 Mostly Cloudy 40 4.4 25 -3.9 55 55 W 13 20 29.98 1015 10 16 0.00 0.00
1:53 pm 13:53 Mostly Cloudy with Light Rain 40 4.4 25 -3.9 55 55 NW 8 13 29.97 1015 10 16 0.00 0.00
2:53 pm 14:53 Mostly Cloudy 43 6.1 25 -3.9 49 49 NW 7 11 29.97 1015 10 16 0.00 0.00
3:53 pm 15:53 Sunny 43 6.1 25 -3.9 49 49 W 9 15 29.98 1015 10 16 0.00 0.00
4:53 pm 16:53 Sunny 42 5.6 26 -3.3 53 53 W 5 7 30.01 1016 10 16 0.00 0.00
5:53 pm 17:53 Clear 41 5 28 -2.2 60 60 SW 3 6 30.04 1017 10 16 0.00 0.00
6:53 pm 18:53 Clear 38 3.3 30 -1.1 73 73 Calm 30.06 1018 10 16 0.00 0.00
7:53 pm 19:53 Cloudy 39 3.9 31 -0.6 73 73 ESE 3 6 30.07 1018 10 16 0.00 0.00
8:53 pm 20:53 Mostly Clear 38 3.3 30 -1.1 73 73 SE 5 7 30.09 1019 10 16 0.00 0.00
9:53 pm 21:53 Mostly Cloudy 39 3.9 31 -0.6 73 73 SSE 7 11 30.11 1020 10 16 0.00 0.00
10:53 pm 22:53 Clear 38 3.3 30 -1.1 73 73 SE 7 11 30.12 1020 10 16 0.00 0.00
11:53 pm 23:53 Partly Cloudy 35 1.7 30 -1.1 82 82 E 3 6 30.12 1020 10 16 0.00 0.00

Powered by AerisWeather